Location: Faicchio
(41.2833°N, 14.4833°E)
Time: 02:26:26
(UTC+00:00)

Cosmos 1812 - Pass Details

Date: 15 June 2025
Orbit: 399 x 400 km, 82.5° (Epoch: 07 July)

Event Time Altitude Azimuth Distance (km) Brightness Sun altitude
Rises 01:22:23 0° 348° (NNW) 2,320 6.7 -17.7°
Reaches altitude 10° 01:24:25 10° 344° (NNW) 1,456 5.5 -17.5°
Maximum altitude 01:27:32 57° 265° (W) 476 2.2 -17.2°
Enters shadow 01:27:52 53° 234° (SW) 498 2.2 -17.2°
